Home   Weather   35°01'N, 85°11'W   Past weeks
Flag for USA

Past Weather in 35°01'N, 85°11'W, USA — Yesterday and Last 2 Weeks

Now
84 °F

Partly cloudy.


Feels Like: 88 °F
Forecast: 83 / 75 °F
Wind: 5 mph from South

Location: Lovell Field

Current Time: Jul 16, 2019 at 11:10:24 pm

Latest Report: Jul 16, 2019 at 9:53 pm


Visibility: 10 mi

Pressure: 30.04 "Hg

Humidity: 61%

Dew Point: 69 °F

Location of 35°01'N, 85°11'WLocation

Past Weather in 35°01'N, 85°11'W — Graph

°F

35°01'N, 85°11'W Temperature Yesterday

Maximum temperature yesterday: 89 °F (at 1:53 pm)
Minimum temperature yesterday: 72 °F (at 6:53 am)
Average temperature yesterday: 81 °F

High & Low Weather Summary for the Past Weeks

 TemperatureHumidityPressure
High99 °F (Jul 9, 4:53 pm)100% (Jul 14, 6:53 am)30.22 "Hg (Jul 14, 6:53 am)
Low71 °F (Jul 4, 6:53 am)35% (Jul 6, 2:53 pm)29.84 "Hg (Jul 8, 5:53 pm)
Average82 °F73%30.00 "Hg
* Reported Jul 1 9:53 pm — Jul 16 9:53 pm, 35°01'N, 85°11'W. Weather by CustomWeather, © 2019

Note: Actual official high and low records may vary slightly from our data, if they occured in-between our weather recording intervals... More about our weather records

Advertising

35°01'N, 85°11'W Weather History for the Previous 24 Hours

Scroll right to see more
 ConditionsComfort  
Time TempWeatherWind HumidityBarometerVisibility
9:53 pm
Tue, Jul 16
84 °FPartly cloudy.5 mph61%30.04 "Hg10 mi
8:53 pm87 °FBroken clouds.5 mph53%30.03 "Hg10 mi
7:53 pm90 °FBroken clouds.10 mph45%30.02 "Hg10 mi
6:53 pm91 °FBroken clouds.20 mph44%30.02 "Hg10 mi
5:53 pm91 °FBroken clouds.15 mph44%30.02 "Hg10 mi
4:53 pm92 °FBroken clouds.13 mph47%30.04 "Hg10 mi
3:53 pm93 °FBroken clouds.18 mph44%30.06 "Hg10 mi
2:53 pm91 °FBroken clouds.10 mph50%30.08 "Hg10 mi
1:53 pm90 °FBroken clouds.12 mph52%30.09 "Hg10 mi
12:53 pm88 °FBroken clouds.10 mph55%30.10 "Hg10 mi
11:53 am88 °FBroken clouds.10 mph57%30.11 "Hg10 mi
10:53 am84 °FBroken clouds.6 mph70%30.11 "Hg10 mi
9:53 am82 °FScattered clouds.5 mph77%30.12 "Hg10 mi
8:53 am79 °FBroken clouds.6 mph82%30.13 "Hg10 mi
7:53 am76 °FPartly sunny.No wind91%30.11 "Hg10 mi
6:53 am75 °FBroken clouds.3 mph94%30.09 "Hg10 mi
5:53 am76 °FPassing clouds.No wind91%30.09 "Hg10 mi
4:53 am76 °FClear.No wind91%30.07 "Hg10 mi
3:53 am77 °FClear.5 mph90%30.07 "Hg10 mi
2:53 am78 °FClear.No wind90%30.07 "Hg10 mi
1:53 am79 °FClear.No wind84%30.08 "Hg10 mi
12:53 am79 °FClear.No wind82%30.08 "Hg10 mi
11:53 pm
Mon, Jul 15
80 °FPartly cloudy.No wind79%30.09 "Hg10 mi
Weather by CustomWeather, © 2019

See weather overview